Regional Weather Roundup
Issued by NWS

Home | Current Version | Previous Version | Graphics & Text | Print | Product List | Glossary On
Versions: 1 2 3 4 5 6 7 8 9 10 11 12 13 14 15 16 17 18 19 20 21 22 23 24 25 26 27 28 29 30 31 32 33 34 35 36 37 38 39 40 41 42 43 44 45 46 47 48 49 50
000
ASUS43 KLMK 271110
RWRKY
KENTUCKY REGIONAL WEATHER ROUNDUP
NATIONAL WEATHER SERVICE LOUISVILLE KY
700 AM EDT WED MAY 27 2015

NOTE "FAIR" INDICATES FEW OR NO CLOUDS BELOW 12,000 FEET
WITH NO SIGNIFICANT WEATHER AND/OR OBSTRUCTIONS TO VISIBILITY.

KYZ001>023-026-027-061>063-070>075-271200-
WESTERN AND SOUTH CENTRAL KENTUCKY

CITY           SKY/WX    TMP DP  RH WIND       PRES   REMARKS
PADUCAH        PTCLDY    65  62  90 S8        30.07R
HENDERSON      CLEAR     63  59  88 S3        30.07R
OWENSBORO      CLEAR     64  63  97 S5        30.10R
HOPKINSVILLE   PTCLDY    66  65  96 S5        30.12R
BOWLING GREEN  PTCLDY    68  65  90 S3        30.14R
GLASGOW        CLOUDY    68  68  98 SW6       30.14R
$$

KYZ024-025-028>034-038-045-046-053-271200-
NORTH CENTRAL KENTUCKY

CITY           SKY/WX    TMP DP  RH WIND       PRES   REMARKS
LOUISVILLE/SDF MOCLDY    68  65  90 S5        30.11R
LOUISVILLE/LOU PTCLDY    67  65  93 S5        30.12R
FORT KNOX      CLOUDY    66  65  97 S6        30.11R
$$

KYZ035>037-039>044-047>052-055>060-089>105-271200-
NORTHEAST KENTUCKY

CITY           SKY/WX    TMP DP  RH WIND       PRES   REMARKS
LEXINGTON      MOCLDY    68  66  93 SW8       30.14R
COVINGTON      MOCLDY    66  64  93 SW7       30.10R FOG
FRANKFORT      PTCLDY    67  65  93 S8        30.12R
$$

KYZ054-064>069-076>088-106>120-271200-
SOUTHEAST KENTUCKY

CITY           SKY/WX    TMP DP  RH WIND       PRES   REMARKS
JACKSON        CLOUDY    66  63  90 VRB3      30.19R
LONDON         PTCLDY    67  61  81 SW7       30.19R
SOMERSET       CLOUDY    64  64 100 S5        30.19R
MIDDLESBORO    CLOUDY    67  64  87 S7        30.22R
MONTICELLO     MOSUNNY   67  66  96 CALM      30.20S
$$



USA.gov is the U.S. government's official web portal to all federal, state and local government web resources and services.